Temp
-5 -5 -5 -5 -5 -5 -5 -5 -5 -5 -5 -5 -5 -5 -4 -4 -4 -4 -4 -4 -4 -4 -4 -4 -4 -4 -4 -4 -4 -4 -4 -4 -5 -4 -5 -4 -5 -4 -4 -4 -4 -4 -4 -5 -5
-5 -5 -5 -5 -5 -5 -5 -5 -5 -5 -5 -5 -5 -5 -5 -4 -4 -4 -4 -4 -4 -4 -5 -4 -4 -4 -4 -4 -4 -5 -4 -4 -4 -4 -3 -4 -5 -5 -5 -4 -5 -4 -5 -5 -5
-6 -6 -6 -6 -6 -5 -5 -5 -5 -5 -5 -5 -5 -5 -5 -5 -4 -5 -5 -4 -4 -4 -4 -4 -4 -4 -4 -4 -4 -5 -5 -4 -4 -4 -4 -5 -5 -5 -5 -5 -4 -5 -5 -5 -5
-7 -7 -7 -7 -6 -6 -6 -6 -6 -6 -5 -5 -5 -5 -5 -5 -4 -4 -5 -5 -4 -4 -4 -4 -5 -5 -5 -5 -4 -4 -5 -5 -4 -3 -4 -5 -4 -5 -5 -4 -4 -5 -5 -5 -5
-8 -8 -7 -7 -7 -7 -7 -7 -6 -6 -6 -6 -6 -6 -5 -5 -5 -5 -5 -5 -5 -5 -4 -4 -4 -5 -5 -6 -5 -5 -5 -5 -5 -5 -4 -4 -5 -5 -5 -4 -4 -5 -5 -6 -5
-8 -8 -7 -7 -7 -7 -7 -7 -7 -7 -7 -6 -6 -6 -6 -6 -5 -5 -5 -5 -5 -5 -5 -5 -5 -5 -5 -5 -5 -5 -5 -5 -5 -5 -4 -5 -5 -5 -4 -4 -5 -5 -5 -6 -6
-8 -8 -8 -8 -7 -7 -7 -7 -7 -7 -6 -6 -6 -6 -6 -6 -6 -6 -6 -5 -5 -5 -5 -5 -5 -5 -5 -5 -5 -5 -5 -5 -5 -5 -4 -5 -5 -5 -4 -4 -4 -5 -5 -6 -6
-8 -8 -8 -8 -7 -7 -7 -7 -7 -6 -6 -6 -6 -6 -6 -6 -6 -6 -6 -6 -6 -5 -5 -5 -5 -5 -5 -5 -5 -5 -5 -5 -5 -5 -4 -5 -5 -4 -5 -4 -4 -5 -5 -6 -6
-8 -8 -8 -8 -8 -7 -7 -7 -7 -7 -7 -7 -7 -6 -6 -6 -6 -6 -6 -6 -6 -6 -5 -5 -5 -5 -5 -5 -6 -6 -5 -5 -6 -5 -5 -5 -5 -4 -5 -4 -5 -4 -5 -5 -5
-9 -8 -8 -8 -8 -8 -8 -8 -7 -7 -7 -7 -7 -7 -6 -6 -6 -6 -6 -6 -6 -6 -6 -6 -5 -5 -5 -6 -6 -6 -6 -6 -6 -5 -5 -5 -6 -5 -6 -5 -5 -4 -5 -5 -5
-10 -9 -9 -9 -9 -8 -8 -8 -8 -8 -7 -7 -7 -7 -7 -6 -6 -6 -6 -6 -6 -6 -5 -6 -6 -5 -6 -6 -6 -7 -8 -6 -8 -5 -6 -5 -7 -6 -7 -6 -5 -5 -5 -5 -5
-10 -10 -10 -10 -9 -9 -9 -8 -8 -8 -8 -7 -7 -7 -7 -7 -7 -6 -6 -6 -6 -6 -6 -6 -5 -6 -6 -6 -6 -6 -6 -7 -9 -9 -6 -5 -5 -6 -5 -5 -5 -5 -5 -4 -4
-11 -10 -10 -10 -10 -9 -9 -9 -9 -8 -8 -8 -8 -7 -7 -7 -7 -7 -7 -6 -6 -6 -6 -6 -6 -6 -6 -6 -6 -6 -6 -7 -7 -9 -9 -8 -5 -6 -5 -5 -4 -5 -5 -5 -4
-11 -11 -11 -10 -10 -10 -10 -9 -9 -9 -9 -8 -8 -8 -8 -8 -7 -7 -7 -7 -7 -7 -7 -6 -6 -6 -6 -6 -6 -6 -7 -7 -6 -8 -9 -7 -7 -6 -5 -5 -5 -5 -5 -5 -5
-11 -11 -11 -11 -10 -10 -10 -10 -10 -10 -10 -9 -8 -9 -9 -9 -7 -8 -8 -8 -8 -7 -7 -7 -7 -6 -6 -6 -6 -6 -7 -7 -6 -6 -7 -8 -7 -6 -5 -5 -5 -5 -5 -5 -6
-11 -11 -11 -11 -11 -11 -11 -11 -11 -11 -12 -10 -11 -10 -10 -10 -9 -9 -9 -9 -9 -9 -8 -7 -7 -7 -7 -7 -6 -7 -7 -7 -7 -6 -7 -5 -8 -7 -6 -6 -7 -5 -5 -6 -6
-12 -12 -12 -12 -11 -12 -13 -13 -13 -14 -14 -12 -12 -13 -12 -11 -11 -11 -11 -11 -11 -10 -9 -9 -9 -8 -7 -7 -7 -7 -8 -8 -8 -7 -5 -5 -6 -7 -7 -7 -5 -5 -5 -6 -6
-13 -13 -13 -13 -14 -14 -15 -15 -15 -15 -14 -14 -14 -14 -14 -13 -14 -13 -13 -13 -12 -12 -12 -11 -11 -10 -9 -8 -8 -7 -8 -9 -9 -8 -5 -5 -5 -5 -7 -7 -7 -5 -6 -6 -6
-14 -13 -14 -14 -14 -14 -14 -15 -15 -14 -14 -14 -14 -15 -15 -14 -14 -14 -14 -14 -14 -13 -13 -13 -12 -13 -11 -11 -10 -9 -10 -7 -11 -10 -9 -8 -6 -6 -7 -7 -7 -6 -6 -5 -6
-14 -14 -14 -14 -14 -14 -14 -14 -14 -14 -14 -14 -14 -14 -14 -14 -14 -14 -14 -14 -14 -13 -14 -14 -13 -13 -13 -12 -9 -11 -12 -10 -10 -11 -10 -9 -8 -8 -8 -6 -7 -6 -7 -5 -4
-14 -14 -14 -14 -14 -14 -14 -14 -14 -14 -14 -14 -14 -14 -14 -15 -14 -14 -15 -14 -14 -13 -14 -14 -13 -13 -14 -12 -12 -12 -11 -12 -12 -12 -11 -10 -8 -8 -8 -8 -7 -6 -6 -6 -6
-14 -14 -14 -14 -14 -15 -14 -14 -14 -14 -14 -14 -14 -14 -14 -14 -15 -15 -15 -17 -13 -13 -14 -15 -14 -13 -14 -14 -13 -14 -15 -14 -13 -13 -12 -11 -9 -9 -9 -9 -8 -8 -6 -7 -7
-15 -15 -15 -15 -15 -15 -14 -14 -14 -14 -14 -14 -14 -15 -15 -17 -17 -17 -18 -19 -16 -14 -17 -16 -15 -15 -15 -14 -13 -13 -13 -15 -15 -14 -12 -11 -11 -10 -10 -10 -10 -8 -6 -7 -8
-15 -15 -15 -15 -15 -15 -14 -14 -14 -14 -15 -15 -16 -16 -16 -17 -18 -19 -20 -20 -19 -19 -17 -17 -17 -17 -17 -17 -17 -17 -15 -16 -15 -14 -13 -12 -11 -11 -11 -11 -10 -8 -7 -7 -8
-16 -15 -15 -15 -15 -14 -14 -14 -14 -15 -16 -16 -16 -16 -16 -17 -18 -20 -20 -20 -21 -21 -20 -20 -19 -18 -17 -18 -17 -16 -16 -17 -16 -15 -14 -13 -12 -11 -11 -11 -11 -9 -8 -9 -9
-16 -16 -16 -15 -15 -15 -15 -15 -15 -16 -16 -16 -17 -17 -17 -18 -19 -20 -21 -21 -21 -22 -21 -21 -21 -20 -18 -19 -19 -17 -16 -14 -14 -14 -14 -13 -12 -11 -11 -10 -11 -10 -9 -7 -7
-16 -16 -16 -16 -15 -15 -15 -15 -16 -17 -16 -17 -17 -17 -18 -18 -19 -20 -21 -21 -22 -22 -22 -22 -22 -21 -21 -21 -21 -19 -17 -16 -14 -14 -14 -14 -12 -12 -11 -10 -10 -11 -10 -7 -7
Height
5866 5865 5865 5864 5864 5864 5864 5864 5865 5864 5864 5864 5865 5865 5865 5866 5868 5869 5871 5873 5874 5876 5877 5879 5881 5883 5884 5886 5888 5889 5892 5892 5894 5895 5890 5895 5896 5896 5897 5899 5900 5900 5901 5902 5903
5862 5861 5861 5860 5859 5860 5860 5860 5860 5861 5861 5861 5862 5862 5863 5864 5865 5866 5869 5869 5872 5874 5876 5877 5878 5881 5883 5885 5887 5888 5890 5894 5893 5894 5890 5896 5897 5897 5899 5899 5900 5900 5901 5902 5903
5858 5857 5857 5856 5855 5855 5855 5856 5856 5857 5857 5857 5858 5859 5860 5862 5863 5864 5865 5867 5869 5871 5874 5876 5877 5879 5881 5883 5885 5888 5889 5890 5892 5892 5895 5896 5897 5896 5897 5899 5899 5899 5902 5903 5903
5854 5853 5852 5851 5851 5851 5851 5851 5852 5852 5852 5853 5854 5855 5856 5858 5862 5862 5862 5863 5866 5868 5870 5872 5875 5876 5878 5880 5882 5885 5887 5889 5890 5891 5893 5894 5895 5896 5897 5895 5899 5899 5901 5902 5903
5850 5849 5848 5848 5847 5847 5847 5847 5848 5848 5848 5849 5850 5851 5852 5854 5857 5858 5859 5860 5863 5865 5866 5869 5872 5873 5875 5876 5880 5883 5886 5887 5889 5890 5892 5890 5894 5896 5896 5897 5897 5898 5899 5901 5903
5846 5845 5843 5843 5843 5843 5843 5843 5844 5844 5845 5845 5846 5847 5848 5850 5851 5853 5855 5857 5859 5861 5863 5865 5867 5871 5872 5875 5878 5880 5884 5885 5888 5889 5891 5893 5893 5894 5895 5895 5896 5897 5898 5900 5902
5839 5839 5838 5837 5837 5837 5838 5838 5839 5839 5840 5840 5841 5842 5844 5846 5847 5848 5850 5852 5854 5857 5859 5861 5864 5868 5870 5873 5875 5879 5882 5883 5885 5887 5889 5891 5893 5892 5895 5893 5894 5896 5897 5899 5901
5833 5833 5831 5830 5829 5830 5831 5831 5832 5832 5833 5834 5835 5837 5838 5840 5842 5844 5845 5848 5850 5852 5855 5858 5860 5863 5866 5869 5873 5875 5880 5882 5883 5885 5887 5889 5890 5889 5891 5891 5893 5894 5896 5898 5900
5825 5824 5824 5823 5822 5822 5822 5823 5824 5824 5826 5827 5828 5830 5832 5834 5836 5838 5840 5843 5845 5847 5850 5853 5856 5860 5862 5865 5868 5872 5877 5879 5881 5883 5884 5886 5888 5883 5888 5891 5891 5892 5895 5897 5899
5814 5814 5814 5814 5814 5813 5814 5814 5815 5817 5818 5819 5821 5823 5824 5826 5828 5830 5833 5836 5839 5842 5845 5848 5851 5854 5858 5860 5866 5870 5873 5876 5877 5880 5881 5882 5880 5876 5883 5889 5889 5891 5893 5896 5899
5804 5802 5803 5804 5804 5805 5805 5806 5808 5809 5809 5811 5813 5814 5816 5818 5820 5822 5825 5828 5831 5836 5839 5842 5845 5850 5854 5856 5859 5862 5868 5872 5877 5875 5877 5879 5879 5859 5876 5885 5888 5890 5892 5895 5898
5794 5792 5792 5793 5794 5795 5796 5796 5797 5798 5800 5801 5803 5805 5807 5809 5811 5814 5817 5820 5823 5828 5831 5835 5840 5845 5846 5849 5853 5856 5861 5866 5872 5873 5873 5875 5877 5878 5881 5884 5886 5888 5891 5893 5894
5784 5783 5782 5783 5783 5785 5786 5787 5787 5788 5789 5791 5792 5794 5797 5799 5801 5805 5809 5811 5815 5819 5823 5827 5833 5836 5840 5842 5847 5851 5856 5861 5864 5868 5869 5872 5873 5877 5859 5877 5883 5886 5889 5892 5895
5774 5773 5773 5773 5774 5773 5775 5776 5777 5778 5779 5779 5781 5783 5786 5787 5790 5793 5797 5802 5805 5809 5813 5818 5822 5827 5831 5835 5840 5844 5850 5853 5856 5860 5864 5865 5868 5867 5869 5871 5880 5883 5886 5890 5893
5762 5762 5762 5762 5762 5763 5764 5765 5766 5768 5769 5768 5771 5772 5774 5777 5780 5783 5785 5789 5793 5797 5802 5809 5811 5816 5821 5827 5830 5837 5840 5845 5849 5852 5855 5859 5863 5866 5866 5866 5875 5880 5883 5887 5890
5754 5752 5751 5750 5749 5750 5751 5753 5755 5759 5756 5758 5758 5760 5763 5765 5767 5772 5774 5778 5782 5786 5790 5796 5798 5803 5811 5815 5820 5827 5831 5835 5840 5844 5841 5853 5859 5863 5862 5871 5873 5877 5879 5884 5887
5746 5744 5741 5738 5738 5737 5738 5742 5746 5749 5747 5748 5750 5752 5753 5755 5757 5760 5764 5767 5772 5775 5780 5784 5788 5791 5798 5803 5809 5815 5822 5827 5829 5831 5839 5851 5851 5859 5869 5869 5864 5873 5877 5881 5884
5741 5739 5736 5733 5731 5731 5732 5736 5739 5739 5740 5742 5743 5745 5747 5747 5749 5752 5754 5757 5759 5763 5768 5772 5778 5779 5784 5792 5799 5803 5812 5816 5820 5828 5840 5844 5838 5847 5861 5865 5867 5866 5871 5877 5880
5739 5738 5736 5734 5733 5733 5734 5734 5735 5735 5736 5737 5738 5740 5741 5741 5744 5746 5747 5749 5746 5753 5757 5761 5766 5768 5770 5775 5784 5795 5793 5814 5817 5827 5829 5837 5840 5845 5850 5857 5856 5860 5864 5866 5871
5737 5736 5734 5733 5732 5732 5732 5732 5732 5732 5732 5732 5733 5733 5734 5733 5734 5736 5737 5735 5738 5742 5745 5748 5751 5757 5756 5760 5771 5774 5792 5796 5799 5808 5814 5827 5834 5835 5839 5845 5853 5855 5861 5864 5858
5734 5734 5733 5731 5730 5730 5730 5729 5728 5727 5726 5726 5724 5723 5722 5723 5721 5721 5723 5723 5724 5728 5734 5736 5738 5747 5748 5752 5761 5767 5774 5778 5791 5798 5805 5816 5825 5837 5834 5835 5842 5851 5856 5864 5867
5733 5732 5730 5729 5729 5728 5727 5726 5724 5722 5721 5718 5716 5713 5711 5708 5706 5705 5704 5706 5707 5711 5717 5721 5724 5730 5740 5745 5746 5752 5760 5768 5776 5786 5794 5806 5819 5828 5830 5830 5830 5841 5847 5855 5862
5731 5730 5729 5728 5728 5726 5724 5721 5718 5715 5711 5707 5703 5699 5696 5695 5692 5690 5689 5689 5689 5692 5697 5704 5710 5716 5724 5729 5734 5738 5747 5752 5760 5775 5785 5794 5806 5821 5818 5820 5825 5830 5838 5846 5853
5731 5730 5729 5727 5725 5722 5719 5715 5711 5706 5702 5699 5696 5692 5689 5685 5682 5680 5678 5675 5674 5677 5679 5686 5693 5698 5707 5722 5714 5722 5727 5738 5750 5759 5772 5779 5799 5807 5807 5810 5816 5822 5830 5838 5845
5732 5730 5728 5725 5722 5718 5714 5710 5705 5701 5698 5695 5691 5688 5684 5679 5674 5671 5669 5666 5665 5665 5667 5670 5673 5681 5687 5697 5697 5704 5711 5724 5733 5742 5752 5771 5779 5793 5805 5804 5808 5814 5819 5826 5830
5731 5729 5726 5723 5718 5714 5709 5704 5700 5697 5693 5689 5686 5682 5677 5672 5667 5662 5659 5657 5656 5656 5656 5659 5659 5664 5668 5673 5683 5692 5699 5706 5716 5728 5736 5744 5755 5773 5783 5786 5800 5803 5804 5808 5817
5728 5726 5723 5719 5714 5709 5705 5701 5697 5693 5689 5684 5680 5675 5669 5664 5658 5653 5649 5646 5645 5646 5647 5650 5651 5654 5657 5664 5670 5674 5687 5696 5708 5719 5729 5737 5754 5756 5768 5776 5778 5787 5789 5800 5809
Wind_Speed
20 20 19 19 18 18 18 17 15 14 12 11 9 9 10 11 11 14 17 13 14 10 15 16 17 14 11 9 7 10 11 9 10 10 13 10 13 13 11 9 8 7 8 12 14
21 21 21 21 20 19 19 19 18 17 17 16 14 12 12 10 9 12 14 20 16 14 14 18 19 18 14 13 12 12 13 8 10 10 7 13 14 13 12 10 8 9 11 13 16
21 21 20 20 21 20 20 20 20 20 19 18 18 18 16 14 11 10 13 17 20 19 15 15 14 18 18 16 15 14 14 16 14 13 15 13 16 13 12 11 9 10 12 16 19
18 18 17 17 18 18 18 18 17 18 19 18 19 18 20 19 15 12 13 14 16 17 21 18 17 16 18 17 19 20 19 13 12 6 8 10 11 11 9 9 8 10 12 17 18
16 16 16 16 16 17 18 17 16 15 16 16 15 16 18 20 18 19 16 16 13 17 19 22 19 18 21 21 20 20 20 19 16 9 14 12 14 12 11 11 9 11 13 16 18
19 19 20 20 19 18 18 18 18 18 17 17 17 16 16 16 18 18 20 20 17 15 18 20 22 23 22 25 23 24 22 21 20 15 12 9 10 10 9 10 11 13 13 14 17
22 21 23 24 23 22 22 21 21 20 21 22 21 20 19 18 16 17 18 20 21 20 17 21 22 24 24 22 23 21 22 21 21 19 17 14 14 14 12 8 10 13 13 14 17
24 23 23 24 26 25 25 25 25 24 24 23 24 24 24 22 21 20 19 18 19 22 23 20 20 24 25 26 22 20 19 20 19 22 20 18 10 16 11 6 9 10 12 14 17
31 30 28 27 27 27 27 27 26 26 25 25 25 26 26 27 26 25 24 22 21 20 22 24 22 20 24 22 26 25 18 18 20 21 22 22 23 28 15 14 10 9 12 15 18
36 36 34 32 31 31 30 29 29 28 27 27 27 27 27 27 28 28 29 27 26 25 24 23 24 24 22 24 20 22 23 21 23 23 23 23 26 22 16 16 12 12 12 14 16
32 34 32 31 31 31 32 32 32 31 31 31 30 31 29 28 27 29 30 30 31 30 29 28 25 21 23 23 24 26 24 28 20 28 24 25 27 24 11 16 14 11 12 15 19
34 34 34 34 33 31 30 31 32 33 33 32 32 32 34 34 32 31 31 32 31 31 34 34 30 27 26 29 30 29 27 29 27 24 29 29 29 24 24 24 20 17 15 18 20
33 34 33 32 32 33 33 32 31 32 34 34 35 36 34 36 37 36 36 35 35 35 35 34 35 35 34 32 32 32 30 29 32 27 29 28 32 28 28 30 23 20 17 18 17
32 32 32 33 33 34 34 34 35 37 37 40 37 38 38 37 39 39 40 40 41 39 41 40 40 39 41 39 36 33 33 34 37 36 30 35 35 38 37 32 30 23 19 17 16
33 31 31 32 34 35 35 34 34 35 31 41 40 38 38 40 42 38 41 42 43 45 45 43 44 44 44 44 44 39 39 38 39 41 45 36 38 24 26 24 33 29 25 22 17
25 27 30 31 31 31 32 34 34 32 29 37 35 33 34 37 40 39 39 41 43 44 47 47 49 50 48 49 48 46 45 45 45 45 51 49 36 40 37 39 31 33 31 26 20
17 19 21 23 26 27 26 25 22 17 31 33 30 29 31 34 36 38 38 40 40 43 44 46 48 51 52 54 53 52 50 48 49 50 49 46 52 40 32 37 34 33 33 30 26
10 12 12 12 9 4 4 6 10 20 21 19 22 23 28 34 34 34 34 32 38 41 38 44 41 50 53 54 54 57 55 52 48 43 46 47 54 53 41 25 37 39 36 33 33
11 8 10 11 10 8 4 2 8 10 11 14 16 21 27 30 30 30 31 33 40 36 37 38 41 35 50 53 54 53 55 55 37 32 39 36 50 49 46 48 41 41 37 38 37
9 9 9 9 10 7 6 8 10 14 15 18 20 24 28 35 34 38 40 43 43 39 39 40 46 43 51 54 58 55 44 49 55 44 41 35 35 39 48 51 55 50 36 43 29
9 10 9 11 6 4 7 8 10 11 15 17 20 25 30 34 40 43 45 47 48 46 44 45 49 47 46 50 48 50 54 50 38 48 43 37 33 32 33 43 53 53 54 45 43
12 11 9 7 7 7 8 11 14 17 18 23 26 31 34 39 41 44 47 44 49 49 49 48 51 51 51 47 50 46 39 48 44 43 47 43 32 21 31 33 43 46 48 46 45
14 11 9 7 10 12 15 15 18 22 27 31 32 31 33 33 40 44 44 43 52 54 48 47 52 54 53 56 57 54 50 47 45 46 45 46 41 28 32 38 31 40 48 48 47
11 10 11 14 15 15 17 19 21 24 19 14 12 21 25 26 23 21 27 38 44 43 49 49 51 53 48 33 43 49 56 47 44 46 49 45 41 37 28 37 45 40 40 44 48
9 11 14 16 16 16 17 18 18 16 10 13 16 20 23 27 29 25 26 24 33 36 38 39 44 49 54 54 47 60 57 45 48 51 55 48 39 48 34 26 29 35 43 45 49
9 13 15 16 16 17 15 14 14 9 12 15 20 23 24 26 26 26 29 30 27 29 32 34 38 40 52 51 56 59 63 65 63 57 64 64 57 51 50 36 34 44 45 58 64
11 13 17 18 18 16 14 13 14 16 18 21 29 26 19 23 23 22 22 25 32 27 27 32 34 36 40 43 38 59 61 63 62 61 59 66 68 56 51 40 37 52 52 55 61
Wind_Direction
282 280 278 276 275 275 273 271 266 262 252 256 245 243 237 238 218 223 219 221 227 205 202 205 213 219 219 198 188 198 188 171 182 192 203 215 199 194 197 195 218 225 197 193 187
282 280 278 276 273 271 270 270 268 263 259 249 251 245 244 238 232 224 216 218 214 213 217 210 210 214 219 207 197 201 197 193 208 225 254 228 211 217 199 218 217 222 208 195 191
283 280 279 277 275 272 269 268 266 266 261 258 250 248 246 241 232 224 227 225 222 223 223 224 226 221 222 216 207 199 197 198 223 250 225 222 238 247 238 225 216 215 215 203 209
283 280 276 275 274 273 271 267 265 263 264 259 257 249 248 247 238 230 237 231 223 222 223 223 220 217 213 218 212 199 205 209 246 228 226 228 240 229 223 201 222 218 215 217 222
277 275 273 269 268 269 268 266 262 261 260 260 258 255 248 245 245 237 233 240 230 219 220 220 218 217 208 212 214 209 211 217 225 234 223 199 231 219 215 232 237 224 222 226 223
271 267 267 266 263 261 262 262 261 258 257 258 257 255 256 252 245 244 235 237 236 232 220 220 220 220 218 223 218 213 210 218 225 232 225 226 227 227 234 236 247 235 226 220 222
271 269 268 268 265 262 259 258 256 255 254 253 254 255 254 255 247 246 244 235 235 236 230 221 223 224 223 227 234 230 221 219 223 222 225 212 216 233 251 244 237 236 225 215 219
271 270 271 270 268 265 264 260 256 254 252 251 252 252 254 253 252 245 245 244 239 235 235 230 225 226 224 226 231 235 234 232 229 227 224 225 248 240 219 226 220 226 225 209 212
272 270 268 267 267 267 265 262 258 255 254 253 252 251 249 250 249 248 242 242 241 238 236 235 230 225 227 227 226 228 230 232 233 229 228 231 212 204 226 235 239 232 229 221 218
274 272 271 271 268 266 264 261 257 257 256 256 256 255 252 248 247 245 243 239 238 238 237 233 234 228 228 229 229 230 227 230 233 236 227 227 236 233 208 228 226 228 240 235 226
277 274 271 268 266 266 265 263 260 255 254 254 254 255 254 252 248 244 242 240 238 236 238 235 233 235 227 228 223 215 220 224 236 230 238 227 226 241 207 232 225 223 242 236 223
279 276 275 273 270 263 260 262 261 261 256 255 255 253 252 251 248 246 243 241 240 236 230 233 236 227 225 223 226 228 222 219 217 233 228 230 222 227 254 237 222 226 237 231 227
278 276 273 270 268 265 262 263 263 263 263 257 256 254 250 249 248 245 242 243 240 237 235 231 232 228 227 228 227 229 225 219 225 220 232 225 228 224 218 227 231 227 234 235 240
281 277 275 273 271 268 266 264 263 262 264 258 258 255 253 251 247 244 242 239 240 238 238 235 231 229 227 227 229 227 226 225 223 219 233 228 225 226 224 222 240 236 226 224 241
284 281 278 275 270 269 267 264 262 260 258 259 255 253 252 249 250 244 245 241 237 237 236 237 232 230 229 228 227 224 221 224 227 225 224 220 229 245 235 227 239 233 225 225 233
290 285 283 278 273 267 261 259 258 257 249 251 256 253 250 248 246 244 240 240 240 237 237 235 233 229 227 227 228 225 223 224 225 228 231 226 223 219 224 225 242 232 228 227 229
302 302 286 275 270 268 264 258 255 243 246 252 250 250 246 244 244 243 242 239 238 238 238 237 234 237 230 227 225 224 224 224 225 227 232 233 231 222 230 242 199 244 233 227 229
340 3 25 37 26 343 274 238 240 240 260 258 254 245 241 245 245 243 247 249 243 243 238 236 237 236 233 229 230 227 223 226 228 228 236 236 237 231 207 231 231 205 241 238 234
319 338 357 3 10 14 21 284 259 279 280 270 269 256 251 252 246 246 251 254 255 242 242 235 229 237 233 231 226 226 228 226 224 229 235 236 242 239 230 215 227 210 227 213 232
314 342 345 346 330 312 305 294 286 280 276 269 262 259 253 257 255 252 255 256 256 251 245 241 238 226 232 234 231 219 220 226 222 222 227 231 227 242 235 231 223 227 211 230 215
338 339 339 339 353 341 329 317 302 288 281 276 270 267 266 258 261 260 256 255 255 250 244 244 241 232 236 236 236 235 227 215 218 230 225 227 227 226 249 244 237 230 231 231 234
354 346 347 353 6 7 344 324 315 311 300 291 281 277 271 268 263 258 258 250 252 249 245 239 239 238 235 242 238 231 226 227 220 218 227 224 222 217 236 240 241 230 230 226 226
357 11 19 27 16 354 338 330 320 309 300 295 297 297 290 280 271 265 261 258 255 252 254 241 239 239 237 234 237 236 229 221 218 217 222 224 217 208 228 209 219 229 223 220 221
23 32 30 4 350 345 341 335 322 312 317 339 337 333 326 321 320 304 276 261 258 257 254 249 242 239 233 228 228 235 236 227 226 222 215 214 217 201 236 230 228 232 222 215 221
33 17 3 352 346 344 343 328 316 310 301 322 340 326 312 310 310 299 288 285 271 259 250 245 241 237 237 223 221 223 226 218 219 215 211 214 216 203 222 242 232 220 213 205 204
13 6 6 2 1 357 339 325 309 301 318 330 336 329 320 313 304 296 286 277 265 257 259 246 243 235 233 231 222 226 228 229 229 227 211 204 199 190 202 208 227 227 215 215 212
356 1 1 1 2 355 341 326 310 304 305 327 331 322 324 320 308 304 290 277 257 251 256 251 247 245 239 236 236 226 225 230 231 227 226 220 207 194 194 199 207 226 219 218 215